Location: Unspecified
(0.0000°N, 0.0000°E)
Time: 13:25:40
(UTC+02:00)

ARIANE DEB (SPELDA) - Visible Passes

Search period start: 25 August 2016 00:00
Search period end: 04 September 2016 00:00
Orbit: 314 x 33000 km, 3.4° (Epoch: 24 August)

Date Brightness Start Highest point End Pass type
(mag) Time Alt. Az. Time Alt. Az. Time Alt. Az.
26 Aug 5.3 04:54:30 80° NNE 04:54:30 80° NNE 13:39:11 10° E visible
28 Aug 5.3 05:14:03 73° WNW 05:15:50 82° N 14:02:45 10° E visible
30 Aug 5.5 05:33:29 58° WNW 05:37:37 84° N 14:25:31 10° E visible
01 Sep 5.7 05:52:48 46° W 05:59:44 86° N 14:47:38 10° E visible
03 Sep 6.0 06:12:02 35° W 06:22:20 87° N 15:09:12 10° E visible
